TimeEST,TemperatureF,Dew PointF,Humidity,Sea Level PressureIn,VisibilityMPH,Wind Direction,Wind SpeedMPH,Gust SpeedMPH,PrecipitationIn,Events,Conditions,WindDirDegrees,DateUTC
12:15 AM,15.3,5.0,64,29.99,10.0,SE,3.5,-,N/A,,Overcast,140,2013-02-03 05:15:00
12:39 AM,15.3,5.0,64,29.98,10.0,SE,4.6,-,N/A,,Overcast,140,2013-02-03 05:39:00
12:55 AM,15.3,4.6,63,29.97,10.0,Calm,Calm,-,N/A,,Overcast,0,2013-02-03 05:55:00
1:15 AM,15.3,4.8,63,29.97,10.0,SE,4.6,-,N/A,,Overcast,140,2013-02-03 06:15:00
1:35 AM,15.3,4.6,63,29.96,10.0,ESE,4.6,-,N/A,,Overcast,110,2013-02-03 06:35:00
1:55 AM,15.3,5.4,65,29.95,10.0,SE,4.6,-,N/A,,Overcast,140,2013-02-03 06:55:00
2:15 AM,15.3,4.6,63,29.95,10.0,SE,3.5,-,N/A,,Overcast,140,2013-02-03 07:15:00
2:34 AM,15.3,4.3,62,29.94,10.0,SE,4.6,-,N/A,,Overcast,140,2013-02-03 07:34:00
2:55 AM,15.3,5.7,66,29.94,10.0,SE,5.8,-,N/A,,Mostly Cloudy,140,2013-02-03 07:55:00
3:15 AM,15.3,6.8,69,29.93,10.0,SE,3.5,-,N/A,Snow,Light Snow,140,2013-02-03 08:15:00
3:35 AM,15.3,7.9,73,29.93,3.0,South,8.1,-,N/A,Snow,Light Snow,170,2013-02-03 08:35:00
3:55 AM,15.3,9.3,77,29.92,2.0,SSE,5.8,-,N/A,Snow,Light Snow,160,2013-02-03 08:55:00
4:14 AM,15.3,9.5,78,29.91,2.0,SSE,5.8,-,N/A,Snow,Light Snow,160,2013-02-03 09:14:00
4:55 AM,15.1,10.2,81,29.89,2.0,SSE,5.8,-,N/A,Snow,Light Snow,160,2013-02-03 09:55:00
5:14 AM,15.1,10.0,80,29.89,1.5,South,4.6,-,N/A,Snow,Light Snow,170,2013-02-03 10:14:00
5:35 AM,15.3,10.4,81,29.89,1.5,South,5.8,-,N/A,Snow,Light Snow,170,2013-02-03 10:35:00
6:14 AM,15.3,10.8,82,29.89,1.2,South,3.5,-,N/A,Snow,Light Snow,190,2013-02-03 11:14:00
6:35 AM,15.3,10.8,82,29.88,1.8,SSE,5.8,-,N/A,Snow,Light Snow,150,2013-02-03 11:35:00
6:55 AM,15.3,10.9,83,29.87,2.0,Calm,Calm,-,N/A,Snow,Light Snow,0,2013-02-03 11:55:00
7:14 AM,15.3,10.9,83,29.88,2.5,Calm,Calm,-,N/A,Snow,Light Snow,0,2013-02-03 12:14:00
7:35 AM,15.8,10.8,80,29.88,2.5,Calm,Calm,-,N/A,Snow,Light Snow,0,2013-02-03 12:35:00
7:55 AM,16.5,10.0,76,29.88,4.0,WNW,3.5,-,N/A,Snow,Light Snow,300,2013-02-03 12:55:00
8:15 AM,16.5,9.9,75,29.88,2.5,NW,4.6,-,N/A,Snow,Light Snow,310,2013-02-03 13:15:00
8:35 AM,16.5,10.4,77,29.88,1.2,WNW,4.6,-,N/A,Snow,Light Snow,290,2013-02-03 13:35:00
8:55 AM,16.5,10.8,78,29.88,1.5,NW,6.9,-,N/A,Snow,Light Snow,310,2013-02-03 13:55:00
9:15 AM,16.5,10.4,77,29.88,1.5,WNW,9.2,-,N/A,Snow,Light Snow,290,2013-02-03 14:15:00
9:35 AM,16.5,10.0,76,29.87,2.0,WNW,8.1,-,N/A,Snow,Light Snow,300,2013-02-03 14:35:00
9:54 AM,16.5,9.1,73,29.87,3.0,WNW,8.1,-,N/A,Snow,Light Snow,300,2013-02-03 14:54:00
10:15 AM,16.5,9.3,73,29.86,2.0,WNW,6.9,-,N/A,Snow,Light Snow,300,2013-02-03 15:15:00
10:35 AM,16.5,10.0,76,29.86,2.0,WNW,8.1,-,N/A,Snow,Light Snow,300,2013-02-03 15:35:00
10:54 AM,17.2,10.0,73,29.86,2.5,West,9.2,-,N/A,Snow,Light Snow,280,2013-02-03 15:54:00
11:15 AM,17.6,10.2,73,29.86,3.0,WNW,5.8,16.1,N/A,Snow,Light Snow,290,2013-02-03 16:15:00
11:35 AM,17.6,10.0,72,29.86,2.0,WNW,5.8,17.3,N/A,Snow,Light Snow,300,2013-02-03 16:35:00
11:54 AM,17.6,10.4,73,29.87,2.5,NW,10.4,16.1,N/A,Snow,Light Snow,310,2013-02-03 16:54:00
12:15 PM,16.7,9.9,74,29.87,1.2,NW,10.4,18.4,N/A,Snow,Light Snow,320,2013-02-03 17:15:00
12:35 PM,16.5,8.8,72,29.87,3.0,NW,12.7,18.4,N/A,Snow,Light Snow,320,2013-02-03 17:35:00
12:54 PM,16.5,7.9,69,29.87,5.0,NW,12.7,19.6,N/A,Snow,Light Snow,320,2013-02-03 17:54:00
1:15 PM,16.5,8.2,70,29.87,5.0,NW,11.5,19.6,N/A,Snow,Light Snow,320,2013-02-03 18:15:00
1:35 PM,17.2,7.9,67,29.87,7.0,NNW,12.7,17.3,N/A,Snow,Light Snow,340,2013-02-03 18:35:00
1:55 PM,16.7,7.5,67,29.88,7.0,NNW,10.4,17.3,N/A,Snow,Light Snow,330,2013-02-03 18:55:00
2:15 PM,17.6,8.2,67,29.88,7.0,NW,9.2,-,N/A,Snow,Light Snow,320,2013-02-03 19:15:00
2:35 PM,17.6,8.6,68,29.88,5.0,NW,9.2,16.1,N/A,Snow,Light Snow,320,2013-02-03 19:35:00
2:55 PM,17.6,8.4,67,29.89,7.0,NW,8.1,16.1,N/A,Snow,Light Snow,320,2013-02-03 19:55:00
3:14 PM,17.6,7.3,64,29.89,10.0,NW,8.1,-,N/A,Snow,Light Snow,310,2013-02-03 20:14:00
3:35 PM,17.6,7.7,65,29.90,5.0,NW,8.1,-,N/A,Snow,Light Snow,310,2013-02-03 20:35:00
3:55 PM,17.6,7.7,65,29.91,7.0,NW,10.4,16.1,N/A,Snow,Light Snow,320,2013-02-03 20:55:00
4:14 PM,17.6,7.7,65,29.91,10.0,NW,8.1,-,N/A,Snow,Light Snow,310,2013-02-03 21:14:00
4:35 PM,17.6,7.5,65,29.92,10.0,NW,9.2,18.4,N/A,,Overcast,310,2013-02-03 21:35:00
4:55 PM,17.6,7.5,65,29.92,7.0,NNW,9.2,-,N/A,Snow,Light Snow,330,2013-02-03 21:55:00
5:35 PM,17.6,6.8,63,29.92,10.0,WNW,10.4,17.3,N/A,Snow,Light Snow,290,2013-02-03 22:35:00
5:55 PM,17.6,6.6,62,29.93,10.0,WNW,11.5,16.1,N/A,,Overcast,290,2013-02-03 22:55:00
6:15 PM,17.6,5.9,60,29.93,10.0,WNW,8.1,-,N/A,,Overcast,300,2013-02-03 23:15:00
6:35 PM,17.6,7.7,65,29.94,7.0,WNW,8.1,-,N/A,Snow,Light Snow,290,2013-02-03 23:35:00
6:55 PM,17.6,7.2,64,29.95,10.0,WNW,10.4,16.1,N/A,,Overcast,300,2013-02-03 23:55:00
7:15 PM,17.6,6.3,61,29.95,10.0,WNW,6.9,16.1,N/A,,Overcast,290,2013-02-04 00:15:00
7:35 PM,17.6,7.7,65,29.96,7.0,WNW,8.1,-,N/A,Snow,Light Snow,290,2013-02-04 00:35:00
7:55 PM,17.6,6.8,63,29.96,10.0,NW,8.1,-,N/A,Snow,Light Snow,310,2013-02-04 00:55:00
8:15 PM,17.6,5.9,60,29.96,10.0,NNW,10.4,-,N/A,,Overcast,330,2013-02-04 01:15:00
8:34 PM,17.6,5.5,59,29.96,10.0,NW,6.9,-,N/A,,Overcast,320,2013-02-04 01:34:00
8:55 PM,17.6,5.4,59,29.96,10.0,NW,6.9,-,N/A,,Overcast,310,2013-02-04 01:55:00
9:15 PM,17.6,4.8,57,29.97,10.0,NW,8.1,-,N/A,,Overcast,320,2013-02-04 02:15:00
9:34 PM,17.6,4.6,57,29.97,10.0,NNW,6.9,-,N/A,,Overcast,330,2013-02-04 02:34:00
9:55 PM,17.6,4.3,56,29.97,10.0,NW,5.8,-,N/A,,Overcast,320,2013-02-04 02:55:00
10:15 PM,18.0,3.7,54,29.97,10.0,NW,6.9,-,N/A,,Overcast,320,2013-02-04 03:15:00
10:34 PM,17.6,4.5,56,29.97,10.0,NNW,3.5,-,N/A,,Overcast,330,2013-02-04 03:34:00
10:55 PM,17.6,3.9,55,29.96,10.0,NW,4.6,-,N/A,,Overcast,320,2013-02-04 03:55:00
11:15 PM,17.6,4.6,57,29.96,10.0,NNW,5.8,-,N/A,,Overcast,340,2013-02-04 04:15:00
11:34 PM,17.6,4.6,57,29.97,10.0,NNW,5.8,-,N/A,,Overcast,330,2013-02-04 04:34:00
11:55 PM,17.6,4.8,57,29.97,10.0,NW,5.8,-,N/A,,Overcast,320,2013-02-04 04:55:00